Regional Weather Roundup
Issued by NWS

Home | Current Version | Previous Version | Text Only | Print | Product List | Glossary Off
Versions: 1 2 3 4 5 6 7 8 9 10 11 12 13 14 15 16 17 18 19 20 21 22 23 24 25 26 27 28 29 30 31 32 33 34 35 36 37 38 39 40 41 42 43 44 45 46 47 48 49 50

000
ASUS43 KBIS 021210
RWRND

NORTH DAKOTA REGIONAL WEATHER ROUNDUP
NATIONAL WEATHER SERVICE BISMARCK ND
700 AM CDT WED SEP 02 2015

NOTE: "FAIR" INDICATES FEW OR NO CLOUDS BELOW 12,000 FEET WITH NO
SIGNIFICANT WEATHER AND/OR OBSTRUCTIONS TO VISIBILITY.


NDZ001>003-009>011-017-021300-
NORTHWEST NORTH DAKOTA

CITY           SKY/WX    TMP DP  RH WIND       PRES   REMARKS
WILLISTON      CLEAR     56  45  66 NE3       29.77S
6HR MIN TEMP:  54; 6HR MAX TEMP:  64;

MINOT          PTCLDY    61  59  93 S3        29.78R FOG
$$

NDZ018>021-031>035-040>046-021300-
SOUTHWEST NORTH DAKOTA

CITY           SKY/WX    TMP DP  RH WIND       PRES   REMARKS
BISMARCK       CLEAR     61  60  97 NE3       29.80S FOG
6HR MIN TEMP:  61; 6HR MAX TEMP:  71;

DICKINSON      CLEAR     56  51  84 E6        29.79S
GARRISON         N/A     58  57  97 CALM      29.80R
6HR MIN TEMP:  56; 6HR MAX TEMP:  68;

HETTINGER ARPT PTCLDY    47  45  93 W6        29.83R
$$

NDZ004>008-012>016-024-026-027-054-021300-
NORTHEAST NORTH DAKOTA

CITY           SKY/WX    TMP DP  RH WIND       PRES   REMARKS
GRAND FORKS    FOG       66  66 100 S9        29.81F VSB 1/4
GRND FRKS AFB  FOG       66  66 100 S7        29.82S VSB 1/4
DEVILS LAKE    CLEAR     66  61  82 SE6       29.79S
$$

NDZ022-023-025-028>030-036>039-047>053-021300-
SOUTHEAST NORTH DAKOTA

CITY           SKY/WX    TMP DP  RH WIND       PRES   REMARKS
FARGO          CLEAR     69  64  84 SE13      29.84R
6HR MIN TEMP:  69; 6HR MAX TEMP:  73;

JAMESTOWN      CLEAR     63  61  93 SE7       29.82S FOG
$$




USA.gov is the U.S. government's official web portal to all federal, state and local government web resources and services.